Home > Weather > Marrakech > Past weeks

Flag for Morocco Past Weather in Marrakech, Morocco — Yesterday and Last 2 Weeks

Now
97 °F

Broken clouds.


Feels Like: 92 °F
Forecast: 82 / 104 °F
Wind: 23 mph from East

Location: Marrakech Airport

Current Time: Aug 27, 2016 at 7:59:25 PM

Latest Report: Aug 27, 2016 at 7:00 PM


Visibility: 4 mi

Pressure: 30.01 "Hg

Humidity: 13%

Dew Point: 39 °F

Location of MarrakechLocation

Past Weather in Marrakech — Graph

°F

Marrakech Temperature Yesterday

Maximum temperature yesterday: 97 °F (at 5:30 PM)
Minimum temperature yesterday: 75 °F (at 4:30 AM)
Average temperature yesterday: 87 °F

High & Low Weather Summary for the Past Weeks

 TemperatureHumidityPressure
High106 °F (Aug 22, 3:30 PM)69% (Aug 25, 7:30 AM)30.12 "Hg (Aug 25, 7:30 AM)
Low70 °F (Aug 20, 6:30 AM)10% (Aug 27, 4:30 PM)29.83 "Hg (Aug 25, 3:00 AM)
Average87 °F33%29.97 "Hg
* Reported Aug 12 6:00 PM — Aug 27 6:30 PM, Marrakech, Weather by CustomWeather, © 2016

Note: Actual official high and low records may vary slightly from our data, if they occured in-between our weather recording intervals... More about our weather records

Advertising

Marrakech Weather History for the Previous 24 Hours

Scroll right to see more
 ConditionsComfort  
Time TempWeatherWind HumidityBarometerVisibility
6:30 PM
Sat, Aug 27
97 °FBroken clouds.20 mph14%30.01 "Hg4 mi
6:00 PM99 °FBroken clouds.12 mph14%30.01 "Hg4 mi
5:30 PM102 °FBroken clouds.6 mph11%30.01 "Hg5 mi
5:00 PM102 °FBroken clouds.6 mph10%29.98 "Hg5 mi
4:30 PM102 °FBroken clouds.7 mph10%29.98 "Hg5 mi
4:00 PM102 °FBroken clouds.6 mph11%29.98 "Hg5 mi
3:30 PM102 °FBroken clouds.7 mph11%30.01 "Hg5 mi
3:00 PM102 °FBroken clouds.9 mph11%30.01 "Hg5 mi
2:30 PM102 °FBroken clouds.10 mph11%30.01 "Hg5 mi
2:00 PM102 °FBroken clouds.7 mph13%30.01 "Hg5 mi
1:30 PM102 °FBroken clouds.8 mph12%30.01 "Hg5 mi
1:00 PM99 °FBroken clouds.8 mph15%30.01 "Hg5 mi
12:30 PM97 °FBroken clouds.8 mph18%30.04 "Hg5 mi
12:00 PM93 °FBroken clouds.7 mph23%30.04 "Hg5 mi
11:30 AM90 °FScattered clouds.8 mph31%30.04 "Hg5 mi
11:00 AM88 °FScattered clouds.3 mph31%30.04 "Hg5 mi
10:30 AM84 °FBroken clouds.2 mph40%30.04 "Hg5 mi
10:00 AM82 °FBroken clouds.1 mph45%30.04 "HgN/A
9:30 AM82 °FBroken clouds.3 mph45%30.04 "HgN/A
9:00 AM81 °FBroken clouds.2 mph48%30.04 "HgN/A
8:30 AM81 °FBroken clouds.7 mph48%30.01 "HgN/A
8:00 AM79 °FBroken clouds.6 mph51%29.98 "HgN/A
7:30 AM81 °FPartly sunny.7 mph45%29.98 "HgN/A
7:00 AM81 °FPassing clouds.8 mph42%29.95 "HgN/A
6:30 AM82 °FPartly cloudy.10 mph35%29.95 "HgN/A
6:00 AM79 °FPassing clouds.6 mph45%29.95 "HgN/A
5:30 AM81 °FPleasantly warm.3 mph39%29.95 "HgN/A
5:00 AM84 °FPassing clouds.3 mph33%29.95 "HgN/A
4:30 AM82 °FPassing clouds.7 mph35%29.95 "HgN/A
4:00 AM82 °FPleasantly warm.8 mph35%29.95 "HgN/A
3:30 AM84 °FPassing clouds.9 mph31%29.95 "HgN/A
3:00 AM84 °FPassing clouds.7 mph29%29.95 "HgN/A
2:30 AM84 °FPassing clouds.7 mph31%29.95 "HgN/A
2:00 AM84 °FPassing clouds.3 mph29%29.98 "HgN/A
1:30 AM86 °FPassing clouds.2 mph27%29.98 "HgN/A
1:00 AM90 °FPassing clouds.9 mph21%29.98 "HgN/A
12:30 AM88 °FPassing clouds.13 mph24%29.98 "HgN/A
12:00 AM88 °FPartly cloudy.13 mph25%29.98 "HgN/A
11:30 PM
Fri, Aug 26
88 °FPartly cloudy.15 mph25%29.98 "HgN/A
11:00 PM88 °FPartly cloudy.13 mph29%30.01 "HgN/A
10:30 PM88 °FThundershowers. Partly cloudy.13 mph27%30.04 "Hg5 mi
10:00 PM90 °FThundershowers. Partly cloudy.12 mph26%30.01 "Hg5 mi
9:30 PM90 °FPartly cloudy.10 mph27%30.01 "HgN/A
9:00 PM88 °FThunderstorms. Partly cloudy.8 mph33%29.98 "Hg5 mi
8:30 PM90 °FThunderstorms. Partly cloudy.12 mph24%29.98 "Hg5 mi
8:04 PM91 °FThunderstorms. Partly cloudy.13 mph18%29.95 "Hg4 mi
8:00 PM93 °FScattered clouds.10 mph16%29.95 "Hg5 mi
7:30 PM93 °FScattered clouds.13 mph16%29.95 "Hg5 mi
7:00 PM95 °FScattered clouds.14 mph14%29.95 "Hg5 mi
Weather by CustomWeather, © 2016

See weather overviewHow to use our weather pages